Terminal Aerodrome Forecast
Issued by NWS Twin Cities, MN

Home | Current Version | Previous Version | Graphics & Text | Print | Product List | Glossary On
Versions: 1 2 3 4 5 6 7 8 9 10 11 12 13 14 15 16 17 18 19 20 21 22 23 24 25 26 27 28 29 30
000
FTUS43 KMPX 220311 AAA
TAFMSP
TAF AMD
KMSP 220311Z 2203/2306 17006KT P6SM FEW250
     FM221500 19013G19KT P6SM SCT250
     FM221800 19017G25KT P6SM FEW060 SCT250
     FM230200 18014KT P6SM SKC=

USA.gov is the U.S. government's official web portal to all federal, state and local government web resources and services.